International Falls, MN

2:03 PM CDT on August 22, 2017 (GMT -0500)
Falls International

Weather History for KINL - January, 2014

Change the Weather History Date:

Tuesday, January 28, 2014

  Actual Average Record
Temperature  
Mean Temperature -14 °F 5 °F  
Max Temperature -5 °F 17 °F 38 °F (1922)
Min Temperature -23 °F -7 °F -43 °F (1966)
Degree Days  
Heating Degree Days 79 60  
Month to date heating degree days 1917 1700  
Since 1 July heating degree days 6412 5875  
Cooling Degree Days 0 0  
Month to date cooling degree days 0 0  
Year to date cooling degree days 0 0  
Moisture  
Dew Point -22 °F    
Average Humidity 67    
Maximum Humidity 77    
Minimum Humidity 57    
Precipitation  
Precipitation T in 0.01 in 0.48 in (1916)
Month to date precipitation 0.82 0.57  
Year to date precipitation 0.82 0.57  
Snow  
Snow T in 0.40 in 5.50 in (2011)
Month to date snowfall 16.8 13.8  
Since 1 July snowfall 54.1 44.8  
Snow Depth 22.00 in    
Sea Level Pressure  
Sea Level Pressure 30.11 in    
Wind  
Wind Speed 11 mph (West)    
Max Wind Speed 22 mph    
Max Gust Speed 28 mph    
Visibility 10 miles    
Events      
T = Trace of Precipitation, MM = Missing Value Source: NWS Daily Summary

Daily Weather History Graph

Daily Weather History Graph

Search for Another Location

Airport or City:

Trip Planner

Search our weather history database for the weather conditions in past years. The results will help you decide how hot, cold, wet, or windy it might be!

Date:

Astronomy

Jan. 28, 2014 Rise Set
Actual Time 7:47 AM CST 5:05 PM CST
Civil Twilight 7:13 AM CST 5:39 PM CST
Nautical Twilight 6:35 AM CST 6:17 PM CST
Astronomical Twilight 5:58 AM CST 6:54 PM CST
Moon 5:33 AM CST (1/28) 2:53 PM CST (1/28)
Length of Visible Light 10h 26m
Length of Day
9h 17m
Waning Crescent, 7% of the Moon is Illuminated
Jan 28
Waning Crescent
Jan 30
New
Feb 6
First Quarter
Feb 14
Full
Feb 22
Last Quarter

Hourly Weather History & Observations

Time (CST) Temp. Windchill Dew Point Humidity Pressure Visibility Wind Dir Wind Speed Gust Speed Precip Events Conditions
12:55 AM -22.0 °F -41.0 °F -27.9 °F 74% 30.31 in 10.0 mi West 8.1 mph - N/A   Clear
1:55 AM -20.9 °F -41.0 °F -27.9 °F 70% 30.29 in 10.0 mi West 9.2 mph - 0.01 in   Clear
2:55 AM -20.9 °F -39.7 °F -27.0 °F 73% 30.28 in 10.0 mi West 8.1 mph - 0.01 in   Clear
3:55 AM -22.0 °F -42.3 °F -27.9 °F 74% 30.26 in 10.0 mi West 9.2 mph - 0.01 in   Clear
4:15 AM -22.0 °F -41.0 °F -27.4 °F 76% 30.11 in 10.0 mi West 8.1 mph - N/A   Mostly Cloudy
4:55 AM -22.0 °F -39.4 °F -27.9 °F 74% 30.26 in 10.0 mi West 6.9 mph - 0.01 in   Overcast
5:55 AM -22.0 °F -42.3 °F -29.0 °F 70% 30.24 in 10.0 mi West 9.2 mph - N/A   Mostly Cloudy
6:40 AM -23.8 °F -43.2 °F -29.2 °F 76% 30.07 in 10.0 mi West 8.1 mph - N/A   Mostly Cloudy
6:55 AM -23.1 °F -42.3 °F -29.0 °F 74% 30.22 in 10.0 mi West 8.1 mph - N/A   Mostly Cloudy
7:55 AM -22.0 °F -42.3 °F -29.0 °F 70% 30.22 in 10.0 mi West 9.2 mph - 0.01 in   Partly Cloudy
8:55 AM -20.9 °F -38.1 °F -27.0 °F 73% 30.20 in 10.0 mi West 6.9 mph - N/A   Clear
9:55 AM -18.0 °F -38.6 °F -25.1 °F 70% 30.18 in 5.0 mi West 10.4 mph 19.6 mph 0.04 in   Haze
10:06 AM -16.6 °F -35.7 °F -23.8 °F 70% 30.03 in 8.0 mi West 9.2 mph - N/A   Overcast
10:23 AM -16.6 °F -36.8 °F -23.8 °F 70% 30.03 in 9.0 mi West 10.4 mph 20.7 mph 0.01 in   Scattered Clouds
10:55 AM -13.0 °F -35.2 °F -22.0 °F 64% 30.18 in 10.0 mi West 13.8 mph 19.6 mph 0.03 in   Scattered Clouds
11:52 AM -9.4 °F -30.6 °F -20.2 °F 59% 30.01 in 10.0 mi West 13.8 mph 25.3 mph 0.01 in   Overcast
11:55 AM -9.9 °F -30.5 °F -20.0 °F 61% 30.15 in 10.0 mi West 12.7 mph 24.2 mph 0.01 in   Overcast
12:26 PM -9.4 °F -31.4 °F -20.2 °F 59% 29.98 in 10.0 mi West 15.0 mph 25.3 mph N/A   Overcast
12:55 PM -8.0 °F -30.3 °F -18.9 °F 59% 30.11 in 10.0 mi West 16.1 mph 24.2 mph N/A   Overcast
1:55 PM -6.0 °F -27.0 °F -17.0 °F 59% 30.07 in 10.0 mi West 15.0 mph 25.3 mph 0.01 in   Overcast
2:55 PM -6.0 °F -26.3 °F -16.1 °F 62% 30.06 in 10.0 mi WSW 13.8 mph 21.9 mph N/A   Overcast
3:55 PM -7.1 °F -28.4 °F -17.0 °F 62% 30.05 in 10.0 mi West 15.0 mph 23.0 mph N/A   Overcast
4:55 PM -8.0 °F -29.6 °F -18.0 °F 61% 30.04 in 10.0 mi WSW 15.0 mph 20.7 mph N/A   Partly Cloudy
5:55 PM -8.0 °F -28.8 °F -18.0 °F 61% 30.01 in 10.0 mi WSW 13.8 mph 23.0 mph N/A   Partly Cloudy
6:55 PM -8.0 °F -27.1 °F -17.0 °F 65% 30.01 in 10.0 mi West 11.5 mph 19.6 mph 0.01 in   Clear
7:55 PM -8.0 °F -26.1 °F -16.1 °F 68% 29.99 in 10.0 mi West 10.4 mph 23.0 mph N/A   Clear
8:55 PM -7.1 °F -25.9 °F -15.0 °F 68% 29.97 in 10.0 mi West 11.5 mph - N/A   Clear
9:55 PM -8.0 °F -26.1 °F -14.1 °F 75% 29.96 in 10.0 mi West 10.4 mph 18.4 mph 0.01 in   Clear
10:55 PM -8.0 °F -27.1 °F -14.1 °F 75% 29.95 in 10.0 mi WSW 11.5 mph - N/A   Partly Cloudy
11:55 PM -9.0 °F -25.2 °F -15.0 °F 75% 29.94 in 10.0 mi WSW 8.1 mph - N/A   Clear